Weather in Prerov

Czech Republic     49°27′07″N   17°26′57″E
temp.,
°C
wind,
m/s
gust,
m/s
humid.,
%
clouds,
%
prec.,
mm/h
press.,
hPa
HPBL,
m
17 may, tue
tue1723:00+15ene226782 0.0 101719
02:00+13nne1194100 2.0 101827
05:00+14nne1193100 1.6 101714
08:00+14nne2291100 2.3 1017103
11:00+16nne2382100 0.8 1017535
14:00+14ne3892100 4.1 1018468
17:00+14n2590100 0.2 1018198
20:00+13nne398689 0.4 1020285
18 may, wed
wed1823:00+11nne4108386 0.0 1023306
02:00+8ne368416 0.0 1024105
05:00+6ne34865 0.0 102651
08:00+10ne47685 0.0 1028445
11:00+14ene46485 0.0 1029979
14:00+16ene55384 0.0 10281202
17:00+16ene45400 0.0 1027839
20:00+11ne22605 0.0 102814
19 may, thu
thu1923:00+8ene22575 0.0 102913
02:00+7e11635 0.0 103010
05:00+6e11785 0.0 102910
08:00+12s24690 0.0 1029307
11:00+17ssw574513 0.0 1029993
14:00+19ssw684341 0.0 10271151
17:00+19s685145 0.0 10251065
20:00+14sse3466100 0.0 102550
20 may, fri
fri2023:00+10sse117581 0.0 102510
02:00+9sse0176100 0.0 102510
05:00+9sw118141 0.0 102511
08:00+12s2571100 0.0 1025211
11:00+18sw56616 0.0 1024637
14:00+22sw566176 0.0 1022846
17:00+23ssw56675 0.4 1019762
20:00+19s498343 0.4 1017206
21 may, sat
sat2123:00+16se2489100 0.1 101584
02:00+15se2299100 3.6 101641
05:00+14ssw369832 0.6 1016160
08:00+18w369096 0.6 1016410
11:00+20wnw797372 0.1 10161151
14:00+21nw795716 0.2 10161715
17:00+20nw586093 0.0 10151207
20:00+16nw23725 0.0 101628